DW2485 Weather Reports


Display with metric or nautical units.
time (UTC)temp
F
wind
direction
speed
MPH
gust
MPH
rain 1hr
in
rain 24hr
in
rain mn
in
humidity
%
barometer
mb
20260509103503 49 242 2.0 2.0 0.00 0.00 0.00 100 1006.4
20260509103004 49 242 1.0 2.0 0.00 0.00 0.00 100 1006.4
20260509102504 49 242 1.0 2.0 0.00 0.00 0.00 100 1006.4
20260509102004 49 242 2.0 2.0 0.00 0.00 0.00 100 1006.4
20260509095504 50 232 2.0 3.0 0.00 0.00 0.00 100 1006.3
20260509094004 50 244 3.0 3.0 0.00 0.00 0.00 100 1006.3
20260509092504 50 236 3.0 5.0 0.00 0.00 0.00 100 1006.2
20260509091504 50 244 3.0 3.0 0.00 0.00 0.00 100 1006.6
20260509091004 50 236 3.0 3.0 0.00 0.00 0.00 100 1006.5
20260509090004 50 225 2.0 3.0 0.00 0.00 0.00 100 1006.5
20260509085504 51 244 2.0 3.0 0.00 0.00 0.00 100 1006.5
20260509084004 51 271 2.0 2.0 0.00 0.00 0.00 100 1006.2
20260509083504 51 270 1.0 3.0 0.00 0.00 0.00 100 1006.0
20260509082004 51 210 3.0 5.0 0.00 0.00 0.00 100 1006.0
20260509080004 51 199 3.0 3.0 0.00 0.00 0.00 100 1006.2
20260509075504 52 196 3.0 3.0 0.00 0.00 0.00 100 1006.3
20260509073004 52 195 1.0 2.0 0.00 0.00 0.00 100 1006.4
20260509065504 53 138 1.0 2.0 0.00 0.00 0.00 100 1006.7
20260509065004 54 197 0.0 3.0 0.00 0.00 0.00 100 1006.6
20260509064504 54 190 1.0 2.0 0.00 0.00 0.00 100 1006.7
20260509064004 54 215 0.0 3.0 0.00 0.00 0.00 100 1006.7
20260509063004 54 208 2.0 3.0 0.00 0.00 0.00 100 1006.8
20260509062503 54 203 3.0 6.0 0.00 0.00 0.00 100 1006.8
20260509060004 55 193 5.0 7.0 0.00 0.00 0.00 100 1006.7
20260509055004 55 211 3.0 8.0 0.00 0.00 0.00 100 1006.7
20260509054504 55 207 3.0 7.0 0.00 0.00 0.00 100 1006.7
20260509053503 55 199 5.0 9.0 0.00 0.00 0.00 100 1006.7
20260509053004 55 204 6.0 9.0 0.00 0.00 0.00 100 1006.7
20260509052004 56 196 6.0 12.0 0.00 0.00 0.00 100 1006.8
20260509051504 56 194 7.0 10.0 0.00 0.00 0.00 100 1006.7
20260509051003 56 187 6.0 9.0 0.00 0.00 0.00 100 1006.9
20260509050003 57 181 6.0 12.0 0.00 0.00 0.00 100 1007.0
20260509045004 57 179 6.0 12.0 0.00 0.00 0.00 100 1007.1
20260509042504 59 194 7.0 14.0 0.00 0.00 0.00 100 1007.3
20260509042004 59 194 8.0 12.0 0.00 0.00 0.00 100 1007.4
20260509041503 59 207 7.0 12.0 0.00 0.00 0.00 100 1007.5
20260509040506 59 197 9.0 12.0 0.00 0.00 0.00 100 1007.5
20260509035505 60 206 5.0 12.0 0.00 0.00 0.00 100 1007.7
20260509035006 60 209 6.0 12.0 0.00 0.00 0.00 100 1007.8
20260509034505 60 210 7.0 12.0 0.00 0.00 0.00 100 1007.8
20260509034005 60 215 6.0 12.0 0.00 0.00 0.00 100 1007.7
20260509031006 61 201 9.0 14.0 0.00 0.00 0.00 100 1007.2
20260509030006 61 198 11.0 18.0 0.00 0.00 0.00 100 1007.1
20260509025005 61 190 12.0 20.0 0.00 0.00 0.00 100 1006.8
20260509023506 62 193 10.0 16.0 0.00 0.00 0.00 100 1006.6
20260509023005 62 186 10.0 15.0 0.00 0.00 0.00 100 1006.5
20260509022505 62 188 7.0 13.0 0.00 0.00 0.00 100 1006.3
20260509021012 63 201 7.0 12.0 0.00 0.00 0.00 100 1006.4
20260509015506 64 189 7.0 10.0 0.00 0.00 0.00 100 1006.2
20260509015006 64 193 7.0 12.0 0.00 0.00 0.00 100 1006.2
20260509014506 64 196 8.0 12.0 0.00 0.00 0.00 100 1006.1
20260509013505 65 194 8.0 13.0 0.00 0.00 0.00 100 1006.2
20260509012005 66 199 7.0 13.0 0.00 0.00 0.00 100 1006.0
20260509011506 66 193 8.0 13.0 0.00 0.00 0.00 100 1006.1
20260509010505 67 200 7.0 12.0 0.00 0.00 0.00 100 1006.1
20260509010005 67 188 7.0 12.0 0.00 0.00 0.00 100 1006.0
20260509005505 68 196 7.0 13.0 0.00 0.00 0.00 100 1006.2
20260509004506 69 192 7.0 14.0 0.00 0.00 0.00 100 1006.2
20260509004006 70 193 10.0 13.0 0.00 0.00 0.00 100 1006.2
20260509003006 71 218 5.0 9.0 0.00 0.00 0.00 100 1006.2
20260509002505 71 212 6.0 10.0 0.00 0.00 0.00 100 1006.4
20260509002006 71 224 6.0 12.0 0.00 0.00 0.00 100 1006.4
20260509001505 72 210 7.0 12.0 0.00 0.00 0.00 100 1006.4
20260508235505 72 235 6.0 13.0 0.00 0.00 0.00 100 1006.4
20260508235005 73 227 8.0 16.0 0.00 0.00 0.00 100 1006.3
20260508234506 73 237 9.0 14.0 0.00 0.00 0.00 100 1006.3
20260508231005 73 193 8.0 15.0 0.00 0.00 0.00 100 1006.6
20260508230005 73 259 11.0 16.0 0.00 0.00 0.00 100 1006.7
20260508225005 73 274 7.0 12.0 0.00 0.00 0.00 100 1006.9
20260508224005 74 261 13.0 20.0 0.00 0.00 0.00 100 1006.9
20260508222506 74 219 7.0 15.0 0.00 0.00 0.00 100 1007.1
20260508222005 74 280 9.0 12.0 0.00 0.00 0.00 100 1007.0
20260508215505 75 276 9.0 16.0 0.00 0.00 0.00 100 1007.0
20260508215005 75 249 12.0 15.0 0.00 0.00 0.00 100 1007.1
20260508214505 75 262 6.0 10.0 0.00 0.00 0.00 100 1007.1
20260508213005 74 202 3.0 9.0 0.00 0.00 0.00 100 1007.3
20260508212505 75 260 8.0 13.0 0.00 0.00 0.00 100 1007.5
20260508212005 75 253 9.0 14.0 0.00 0.00 0.00 100 1007.5
20260508211505 74 267 12.0 17.0 0.00 0.00 0.00 100 1007.5
20260508210005 74 219 2.0 8.0 0.00 0.00 0.00 100 1007.8
20260508204005 75 236 5.0 14.0 0.00 0.00 0.00 100 1008.0
20260508203005 74 232 6.0 10.0 0.00 0.00 0.00 100 1008.1
20260508201505 73 244 3.0 14.0 0.00 0.00 0.00 100 1008.5
20260508200005 74 255 10.0 15.0 0.00 0.00 0.00 100 1008.8
20260508195005 75 260 10.0 13.0 0.00 0.00 0.00 100 1008.9
20260508194505 75 278 12.0 16.0 0.00 0.00 0.00 100 1008.9
20260508194005 73 281 6.0 16.0 0.00 0.00 0.00 100 1009.0
20260508193505 73 270 10.0 18.0 0.00 0.00 0.00 100 1009.2
20260508191005 73 262 7.0 13.0 0.00 0.00 0.00 100 1009.2
20260508190006 72 348 5.0 12.0 0.00 0.00 0.00 100 1009.4
20260508185005 72 342 3.0 8.0 0.00 0.00 0.00 100 1009.6
20260508184505 72 296 3.0 13.0 0.00 0.00 0.00 100 1009.8
20260508184004 72 253 7.0 14.0 0.00 0.00 0.00 100 1009.8
20260508183004 72 292 8.0 12.0 0.00 0.00 0.00 100 1009.8
20260508181504 72 330 1.0 5.0 0.00 0.00 0.00 100 1009.9
20260508180504 71 238 6.0 9.0 0.00 0.00 0.00 100 1010.1
20260508180004 70 267 4.0 8.0 0.00 0.00 0.00 100 1010.2
20260508174005 70 338 7.0 14.0 0.00 0.00 0.00 100 1010.4
20260508173504 71 291 9.0 15.0 0.00 0.00 0.00 100 1010.4
20260508173005 72 343 10.0 13.0 0.00 0.00 0.00 100 1010.6
20260508172505 71 337 6.0 12.0 0.00 0.00 0.00 100 1010.7
20260508171005 70 330 5.0 12.0 0.00 0.00 0.00 100 1010.9
20260508170005 70 250 3.0 10.0 0.00 0.00 0.00 100 1011.1
20260508164005 70 286 12.0 18.0 0.00 0.00 0.00 100 1011.3
20260508163004 69 223 4.0 8.0 0.00 0.00 0.00 100 1011.4
20260508162505 68 70 6.0 12.0 0.00 0.00 0.00 100 1011.4
20260508155005 66 33 3.0 9.0 0.00 0.00 0.00 100 1011.7
20260508154004 66 81 3.0 7.0 0.00 0.00 0.00 100 1011.7
20260508153004 65 56 3.0 5.0 0.00 0.00 0.00 100 1011.7
20260508152504 65 305 2.0 3.0 0.00 0.00 0.00 100 1011.8
20260508152005 64 137 2.0 8.0 0.00 0.00 0.00 100 1011.8
20260508151505 63 44 1.0 8.0 0.00 0.00 0.00 100 1012.3
20260508151005 64 189 5.0 9.0 0.00 0.00 0.00 100 1012.3
20260508150005 62 169 5.0 10.0 0.00 0.00 0.00 100 1012.3
20260508145504 62 169 4.0 9.0 0.00 0.00 0.00 100 1012.2
20260508144004 61 163 5.0 8.0 0.00 0.00 0.00 100 1012.4
20260508142004 59 106 3.0 10.0 0.00 0.00 0.00 100 1012.5
20260508140505 57 179 5.0 8.0 0.00 0.00 0.00 100 1012.7
20260508140005 57 152 4.0 7.0 0.00 0.00 0.00 100 1012.7
20260508135005 55 156 5.0 7.0 0.00 0.00 0.00 100 1012.7
20260508134004 53 159 5.0 7.0 0.00 0.00 0.00 100 1012.7
20260508131504 51 120 5.0 7.0 0.00 0.00 0.00 100 1012.9
20260508131004 50 110 5.0 7.0 0.00 0.00 0.00 100 1012.9
20260508130505 50 95 5.0 7.0 0.00 0.00 0.00 100 1012.8
20260508125506 49 98 3.0 6.0 0.00 0.00 0.00 100 1013.0
20260508125005 48 94 4.0 6.0 0.00 0.00 0.00 100 1012.9
20260508124504 48 93 4.0 6.0 0.00 0.00 0.00 100 1012.9
20260508123504 47 61 2.0 5.0 0.00 0.00 0.00 100 1013.0
20260508123004 47 78 3.0 5.0 0.00 0.00 0.00 100 1012.9
20260508122504 46 77 3.0 3.0 0.00 0.00 0.00 100 1012.8
20260508115504 42 87 1.0 3.0 0.00 0.00 0.00 100 1012.9
20260508114505 39 49 3.0 3.0 0.00 0.00 0.00 100 1012.7
20260508114005 40 86 2.0 2.0 0.00 0.00 0.00 100 1012.8
20260508112004 40 86 0.0 1.0 0.00 0.00 0.00 100 1012.9
20260508111004 41 86 0.0 1.0 0.00 0.00 0.00 100 1012.7
20260508110005 41 86 2.0 3.0 0.00 0.00 0.00 100 1012.6
20260508105504 42 100 2.0 3.0 0.00 0.00 0.00 100 1012.6
20260508105004 42 75 1.0 2.0 0.00 0.00 0.00 100 1012.6
20260508104504 42 75 1.0 1.0 0.00 0.00 0.00 100 1012.5
20260508104004 42 75 1.0 2.0 0.00 0.00 0.00 100 1012.5